World > North America > United States > New York   City of Poughkeepsie, New York
Hourly Weather in Poughkeepsie, New YorkPoughkeepsie, New York Hourly Weather

Poughkeepsie, NY Hourly Weather

Hourly Weather Poughkeepsie, New YorkHourly Weather in Poughkeepsie, NY
Lat: 41.70N, Lon: 73.92W  ICAO: KPOU
Web Search

Did you know? You can add this page to Bookmarks by pressing the Ctrl key & d key at the same time. Mac users press command & d.

Feedback

Poughkeepsie Hourly Weather

36 Hour Weather Scroll   °F Click to change Poughkeepsie hourly weather to Imperial units.Click to change Poughkeepsie hourly weather to Metric units. °C
Currently, Partly Cloudy, temperature is 58°F14°C, dew point 56°F13°C, humidity 93%. Wind direction is N at 0 mph0 km/h with visibility of 10.00 mi16 km. Barometric pressure is 29.8 in1009 mb.

Sep 28
7:00 AM

Sep 28
8:00 AM

Sep 28
9:00 AM

Sep 28
10:00 AM

Sep 28
11:00 AM

Sep 28
NOON

Sep 28
1:00 PM

Sep 28
2:00 PM

Sep 28
3:00 PM

Sep 28
4:00 PM

Sep 28
5:00 PM

Sep 28
6:00 PM

Sep 28
7:00 PM

Sep 28
8:00 PM

Sep 28
9:00 PM

Sep 28
10:00 PM

Sep 28
11:00 PM

Sep 29
MIDNIGHT

Sep 29
1:00 AM

Sep 29
2:00 AM

Sep 29
3:00 AM

Sep 29
4:00 AM

Sep 29
5:00 AM

Sep 29
6:00 AM

Sep 29
7:00 AM

Sep 29
8:00 AM

Sep 29
9:00 AM

Sep 29
10:00 AM

Sep 29
11:00 AM

Sep 29
NOON

Sep 29
1:00 PM

Sep 29
2:00 PM

Sep 29
3:00 PM

Sep 29
4:00 PM

Sep 29
5:00 PM

Sep 29
6:00 PM
Cloudy Cloudy Cloudy Cloudy Cloudy Cloudy Cloudy Cloudy Cloudy Cloudy Cloudy Cloudy Partly Cloudy Partly Cloudy Partly Cloudy Partly Cloudy Partly Cloudy Partly Cloudy Partly Cloudy Partly Cloudy Partly Cloudy Clear Clear Clear Clear Clear Clear Clear Clear Clear Mostly Cloudy Mostly Cloudy Mostly Cloudy Mostly Cloudy Mostly Cloudy Mostly Cloudy
Cloudy Cloudy Cloudy Cloudy Cloudy Cloudy Cloudy Cloudy Cloudy Cloudy Cloudy Cloudy Partly Cloudy Partly Cloudy Partly Cloudy Partly Cloudy Partly Cloudy Partly Cloudy Partly Cloudy Partly Cloudy Partly Cloudy Clear Clear Clear Clear Clear Clear Clear Clear Clear Mostly Cloudy Mostly Cloudy Mostly Cloudy Mostly Cloudy Mostly Cloudy Mostly Cloudy
61°F16°C 61°F16°C 63°F17°C 65°F18°C 67°F19°C 68°F20°C 70°F21°C 71°F22°C 70°F21°C 70°F21°C 69°F21°C 66°F19°C 64°F18°C 61°F16°C 59°F15°C 58°F14°C 56°F13°C 55°F13°C 54°F12°C 53°F12°C 52°F11°C 51°F11°C 50°F10°C 50°F10°C 51°F11°C 51°F11°C 54°F12°C 58°F14°C 61°F16°C 63°F17°C 64°F18°C 66°F19°C 66°F19°C 66°F19°C 66°F19°C 63°F17°C
Rain Rain Rain Rain Rain Rain Rain Rain - - - - - - - - - - - - - - - - - - - - - - - - - - - -
57% 57% 28% 28% 28% 28% 28% 28% 20% 20% 20% 20% 20% 20% 5% 5% 5% 5% 5% 5% 4% 4% 4% 4% 4% 4% 1% 1% 1% 1% 1% 1% 0% 0% 0% 0%
58°F14°C 58°F14°C 59°F15°C 59°F15°C 60°F16°C 60°F16°C 59°F15°C 59°F15°C 58°F14°C 58°F14°C 57°F14°C 56°F13°C 56°F13°C 55°F13°C 54°F12°C 52°F11°C 51°F11°C 50°F10°C 48°F9°C 47°F8°C 46°F8°C 46°F8°C 45°F7°C 45°F7°C 44°F7°C 44°F7°C 44°F7°C 44°F7°C 44°F7°C 43°F6°C 43°F6°C 42°F6°C 42°F6°C 42°F6°C 42°F6°C 43°F6°C
90% 90% 87% 81% 78% 76% 68% 66% 66% 66% 66% 70% 75% 81% 83% 80% 83% 83% 80% 80% 80% 83% 83% 83% 77% 77% 69% 60% 54% 48% 46% 42% 42% 42% 42% 48%
SW SW SSW SSW SSW W WNW NW NW NNW NNW NNW NNW NNW NNW NNW NNW NNW NNW NNW NNW N N NW NW W NW NW N NNW NNW NW NW NNW NNW NNW
3 mph 3 mph 3 mph 5 mph 5 mph 5 mph 6 mph 6 mph 6 mph 5 mph 5 mph 5 mph 5 mph 5 mph 5 mph 3 mph 3 mph 3 mph 2 mph 2 mph 2 mph 2 mph 2 mph 2 mph 2 mph 2 mph 2 mph 6 mph 6 mph 6 mph 9 mph 9 mph 9 mph 8 mph 8 mph 8 mph
10 mi16 km 10 mi16 km 10 mi16 km 10 mi16 km 10 mi16 km 10 mi16 km 10 mi16 km 10 mi16 km 10 mi16 km 10 mi16 km 10 mi16 km 10 mi16 km 10 mi16 km 10 mi16 km 10 mi16 km 10 mi16 km 10 mi16 km 10 mi16 km 10 mi16 km 10 mi16 km 10 mi16 km 10 mi16 km 10 mi16 km 10 mi16 km 10 mi16 km 10 mi16 km 10 mi16 km 10 mi16 km 10 mi16 km 10 mi16 km 10 mi16 km 10 mi16 km 10 mi16 km 10 mi16 km 10 mi16 km 10 mi16 km
Hour (EDT)
Weather
Clouds
Temperature
Precip. Type
POP
Dewpoint
Humidity
Wind Direction
Wind Speed
Visibility
POP = Probability of Precipitation. ** Indicates missing data/values from model statistics.

24 Hour Forecast

Today - Mostly cloudy with scattered showers with isolated thunderstorms. Highs in the mid 70s. Southwest winds around 5 mph, becoming northwest this afternoon. Chance of rain 50%.
Tonight - Partly cloudy. Cooler with lows in the mid 40s. North winds around 5 mph.

48 Hour Forecast API Feed


Tue, Sep 28
7:00 am

Tue, Sep 28
8:00 am

Tue, Sep 28
9:00 am

Tue, Sep 28
10:00 am

Tue, Sep 28
11:00 am

Tue, Sep 28
Noon

Tue, Sep 28
1:00 pm

Tue, Sep 28
2:00 pm

Tue, Sep 28
3:00 pm

Tue, Sep 28
4:00 pm

Tue, Sep 28
5:00 pm

Tue, Sep 28
6:00 pm

Tue, Sep 28
7:00 pm

Tue, Sep 28
8:00 pm

Tue, Sep 28
9:00 pm

Tue, Sep 28
10:00 pm

Tue, Sep 28
11:00 pm

Wed, Sep 29
Midnight

Wed, Sep 29
1:00 am

Wed, Sep 29
2:00 am

Wed, Sep 29
3:00 am

Wed, Sep 29
4:00 am

Wed, Sep 29
5:00 am

Wed, Sep 29
6:00 am

Wed, Sep 29
7:00 am

Wed, Sep 29
8:00 am

Wed, Sep 29
9:00 am

Wed, Sep 29
10:00 am

Wed, Sep 29
11:00 am

Wed, Sep 29
Noon

Wed, Sep 29
1:00 pm

Wed, Sep 29
2:00 pm

Wed, Sep 29
3:00 pm

Wed, Sep 29
4:00 pm

Wed, Sep 29
5:00 pm

Wed, Sep 29
6:00 pm

Wed, Sep 29
7:00 pm

Wed, Sep 29
8:00 pm

Wed, Sep 29
9:00 pm

Wed, Sep 29
10:00 pm

Wed, Sep 29
11:00 pm

Thu, Sep 30
Midnight

Thu, Sep 30
1:00 am

Thu, Sep 30
2:00 am

Thu, Sep 30
3:00 am

Thu, Sep 30
4:00 am

Thu, Sep 30
5:00 am

Thu, Sep 30
6:00 am
Light Rain ShowerLight Rain ShowerLight Rain ShowerLight Rain ShowerLight Rain ShowerLight Rain ShowerLight Rain ShowerLight Rain ShowerLight Rain ShowerLight Rain ShowerPatchy Rain PossiblePatchy Rain PossiblePatchy Rain PossibleModerate Rain At TimesPartly CloudyPartly CloudyPartly CloudyPartly CloudyPartly CloudyPartly CloudyPartly CloudyPartly CloudyPartly CloudyClearSunnyPartly CloudyPartly CloudySunnyPartly CloudyPartly CloudyPartly CloudyPartly CloudyPartly CloudyPartly CloudyPartly CloudyPartly CloudyPartly CloudyPartly CloudyPartly CloudyPartly CloudyPartly CloudyPartly CloudyPartly CloudyPartly CloudyPartly CloudyMistMistMist
Light rain showers Light rain showers Light rain showers Light rain showers Light rain showers Light rain showers Light rain showers Light rain showers Light rain showers Light rain showers Patchy rain possible Patchy rain possible Patchy rain possible Moderate rain at times Partly cloudy Partly cloudy Partly cloudy Partly cloudy Partly cloudy Partly cloudy Partly cloudy Partly cloudy Partly cloudy Clear Sunny Partly cloudy Partly cloudy Sunny Partly cloudy Partly cloudy Partly cloudy Partly cloudy Partly cloudy Partly cloudy Partly cloudy Partly cloudy Partly cloudy Partly cloudy Partly cloudy Partly cloudy Partly cloudy Partly cloudy Partly cloudy Partly cloudy Partly cloudy Mist Mist Mist
56°F
13°C
57°F
14°C
61°F
16°C
65°F
18°C
67°F
20°C
70°F
21°C
71°F
22°C
72°F
22°C
71°F
22°C
70°F
21°C
66°F
19°C
62°F
17°C
56°F
13°C
53°F
11°C
51°F
10°C
50°F
10°C
49°F
10°C
48°F
9°C
47°F
9°C
47°F
8°C
48°F
9°C
45°F
7°C
44°F
6°C
42°F
6°C
41°F
5°C
45°F
7°C
52°F
11°C
57°F
14°C
61°F
16°C
63°F
17°C
64°F
18°C
66°F
19°C
67°F
20°C
66°F
19°C
63°F
17°C
61°F
16°C
51°F
11°C
49°F
9°C
47°F
8°C
46°F
8°C
45°F
7°C
43°F
6°C
44°F
7°C
46°F
8°C
44°F
7°C
42°F
6°C
41°F
5°C
40°F
5°C
55°F
13°C
56°F
14°C
60°F
16°C
63°F
17°C
64°F
18°C
64°F
18°C
63°F
17°C
63°F
17°C
63°F
17°C
62°F
17°C
61°F
16°C
58°F
15°C
53°F
12°C
50°F
10°C
49°F
9°C
48°F
9°C
46°F
8°C
45°F
7°C
44°F
6°C
42°F
6°C
42°F
6°C
41°F
5°C
40°F
4°C
39°F
4°C
39°F
4°C
40°F
4°C
42°F
6°C
42°F
6°C
42°F
5°C
42°F
5°C
42°F
5°C
42°F
5°C
43°F
6°C
45°F
7°C
47°F
9°C
48°F
9°C
43°F
6°C
42°F
5°C
41°F
5°C
41°F
5°C
41°F
5°C
41°F
5°C
41°F
5°C
41°F
5°C
41°F
5°C
41°F
5°C
40°F
4°C
39°F
4°C
29.8 in
1009 mb
29.8 in
1009 mb
29.8 in
1009 mb
29.83 in
1010 mb
29.83 in
1010 mb
29.8 in
1009 mb
29.8 in
1009 mb
29.8 in
1009 mb
29.77 in
1008 mb
29.8 in
1009 mb
29.8 in
1009 mb
29.83 in
1010 mb
29.85 in
1011 mb
29.85 in
1011 mb
29.88 in
1012 mb
29.88 in
1012 mb
29.91 in
1013 mb
29.91 in
1013 mb
29.91 in
1013 mb
29.91 in
1013 mb
29.91 in
1013 mb
29.94 in
1014 mb
29.94 in
1014 mb
29.97 in
1015 mb
30 in
1016 mb
30 in
1016 mb
30.03 in
1017 mb
30.03 in
1017 mb
30 in
1016 mb
30 in
1016 mb
29.97 in
1015 mb
29.94 in
1014 mb
29.94 in
1014 mb
29.94 in
1014 mb
29.94 in
1014 mb
29.97 in
1015 mb
30 in
1016 mb
30.03 in
1017 mb
30.03 in
1017 mb
30.06 in
1018 mb
30.06 in
1018 mb
30.06 in
1018 mb
30.06 in
1018 mb
30.06 in
1018 mb
30.06 in
1018 mb
30.06 in
1018 mb
30.09 in
1019 mb
30.09 in
1019 mb
96%97%97%93%89%80%75%74%76%78%84%87%90%93%93%92%89%88%86%85%79%84%86%89%92%83%68%57%49%45%43%41%40%46%56%62%73%77%80%83%87%90%89%83%90%95%95%96%
SWSWSWWSWWWNWWWNWNNWNNNNENNENNNNNNNNNNNNNWNNWNNNWNNWNNWNNWNNWNNWNNWNNWNNWNNWNWNNWNNNNWNWWNWNNWNNNNW
6 mph
10 km/h
5 mph
8 km/h
5 mph
8 km/h
6 mph
10 km/h
6 mph
10 km/h
6 mph
10 km/h
5 mph
8 km/h
5 mph
8 km/h
4 mph
7 km/h
6 mph
10 km/h
6 mph
10 km/h
6 mph
10 km/h
5 mph
8 km/h
4 mph
6 km/h
4 mph
6 km/h
4 mph
6 km/h
5 mph
8 km/h
6 mph
10 km/h
6 mph
9 km/h
6 mph
9 km/h
5 mph
8 km/h
4 mph
7 km/h
4 mph
7 km/h
4 mph
7 km/h
4 mph
6 km/h
3 mph
5 km/h
4 mph
7 km/h
4 mph
7 km/h
6 mph
9 km/h
5 mph
9 km/h
5 mph
8 km/h
6 mph
9 km/h
7 mph
12 km/h
8 mph
13 km/h
8 mph
12 km/h
7 mph
11 km/h
4 mph
6 km/h
3 mph
5 km/h
3 mph
5 km/h
3 mph
5 km/h
3 mph
5 km/h
2 mph
3 km/h
2 mph
3 km/h
2 mph
3 km/h
2 mph
3 km/h
3 mph
4 km/h
3 mph
5 km/h
3 mph
4 km/h
68%63%83%79%76%73%81%94%87%76%87%72%66%68%0%0%0%0%0%0%0%0%0%0%0%0%0%0%0%0%0%0%0%0%0%0%0%0%0%0%0%0%0%0%0%0%0%0%
6 mi
10 km
6 mi
10 km
6 mi
10 km
6 mi
10 km
6 mi
10 km
6 mi
10 km
6 mi
10 km
6 mi
10 km
6 mi
10 km
6 mi
10 km
6 mi
9 km
6 mi
9 km
6 mi
10 km
6 mi
10 km
6 mi
10 km
6 mi
10 km
6 mi
10 km
6 mi
10 km
6 mi
10 km
6 mi
10 km
6 mi
10 km
6 mi
10 km
6 mi
10 km
6 mi
10 km
6 mi
10 km
6 mi
10 km
6 mi
10 km
6 mi
10 km
6 mi
10 km
6 mi
10 km
6 mi
10 km
6 mi
10 km
6 mi
10 km
6 mi
10 km
6 mi
10 km
6 mi
10 km
6 mi
10 km
6 mi
10 km
6 mi
10 km
6 mi
10 km
6 mi
10 km
6 mi
10 km
6 mi
10 km
6 mi
10 km
6 mi
10 km
1 mi
2 km
1 mi
2 km
1 mi
2 km

Day/Time
Weather
Condition
Temperature
Dew Point
Pressure
Humidity
Wind Direction
Wind Speed
Prob Precip %
Visibility
Prob Precip % = Probability of Precipitation.